Location: Mahannah Oil Field
(37.4664°N, 96.6003°W)
Time: 16:12:07
(UTC+00:00)

Vanguard 2 Rocket - Pass Details

Date: 20 June 2021
Orbit: 554 x 3325 km, 32.9° (Epoch: 24 July)

Event Time Altitude Azimuth Distance (km) Brightness Sun altitude
Rises 04:18:02 0° 267° (W) 7,237 11.9 -21.9°
Reaches altitude 10° 04:23:13 10° 266° (W) 6,048 11.4 -22.4°
Maximum altitude 04:41:04 73° 187° (S) 2,356 8.7 -24.1°
Enters shadow 04:49:07 22° 108° (ESE) 3,147 9.2 -24.8°
